Retour au catalogue

SATCOM 2

ActifMilitaireGEO
NORAD 8774·PAYLOAD·🇺🇸 United States

Lancé Mar 26, 1976 depuis Cape Canaveral Space Force Station

Loading…

TLE

FraisSource: Space-Track

Époque: Sep 13, 2026, 18:15 UTC

1 08774U 76029A   26256.76071078 -.00000028  00000-0  00000-0 0  9998
2 08774   8.7433 308.3881 0057801 241.3798 117.9797  0.98623112120409

Suivez SATCOM 2 en temps réel avec AllMySat

Download on the App Store